| time (UTC) | temp F | wind direction | speed MPH | gust MPH | rain 1hr in | rain 24hr in | rain mn in | humidity % | barometer mb |
| 20260903074200 | 71 | 300 | 0.0 | 3.0 | 0.00 | 0.00 | 0.00 | 68 | 1024.9 |
| 20260903073658 | 71 | 310 | 0.0 | 2.0 | 0.00 | 0.00 | 0.00 | 67 | 1024.9 |
| 20260903073201 | 72 | 261 | 0.0 | 1.0 | 0.00 | 0.00 | 0.00 | 68 | 1024.9 |
| 20260903073007 | 71 | 259 | 0.0 | 1.0 | 0.00 | 0.00 | 0.00 | 69 | 1024.8 |
| 20260903072200 | 71 | 283 | 0.0 | 1.0 | 0.00 | 0.00 | 0.00 | 69 | 1024.8 |
| 20260903071657 | 70 | 282 | 0.0 | 1.0 | 0.00 | 0.00 | 0.00 | 70 | 1024.8 |
| 20260903071507 | 70 | 282 | 0.0 | 2.0 | 0.00 | 0.00 | 0.00 | 70 | 1024.8 |
| 20260903070658 | 71 | 271 | 0.0 | 2.0 | 0.00 | 0.00 | 0.00 | 69 | 1024.8 |
| 20260903070201 | 71 | 92 | 0.0 | 1.0 | 0.00 | 0.00 | 0.00 | 71 | 1024.9 |
| 20260903065658 | 70 | 92 | 0.0 | 1.0 | 0.00 | 0.00 | 0.00 | 72 | 1024.9 |
| 20260903065157 | 70 | 96 | 0.0 | 1.0 | 0.00 | 0.00 | 0.00 | 72 | 1024.9 |
| 20260903064658 | 70 | 106 | 0.0 | 1.0 | 0.00 | 0.00 | 0.00 | 72 | 1024.9 |
| 20260903064201 | 70 | 317 | 0.0 | 0.0 | 0.00 | 0.00 | 0.00 | 74 | 1024.9 |
| 20260903063827 | 68 | 313 | 0.0 | 0.0 | 0.00 | 0.00 | 0.00 | 79 | 1024.8 |
| 20260903063755 | 69 | 313 | 0.0 | 0.0 | 0.00 | 0.00 | 0.00 | 76 | 1024.8 |
| 20260903062657 | 66 | 313 | 0.0 | 0.0 | 0.00 | 0.00 | 0.00 | 82 | 1024.8 |
| 20260903062512 | 65 | 313 | 0.0 | 0.0 | 0.00 | 0.00 | 0.00 | 85 | 1024.7 |
| 20260903062004 | 64 | 276 | 0.0 | 0.0 | 0.00 | 0.00 | 0.00 | 85 | 1024.7 |
| 20260903061156 | 63 | 276 | 0.0 | 0.0 | 0.00 | 0.00 | 0.00 | 89 | 1024.5 |
| 20260903061001 | 62 | 276 | 0.0 | 0.0 | 0.00 | 0.00 | 0.00 | 90 | 1024.5 |
| 20260903060157 | 61 | 276 | 0.0 | 0.0 | 0.00 | 0.00 | 0.00 | 90 | 1024.4 |
| 20260903060005 | 60 | 276 | 0.0 | 0.0 | 0.00 | 0.00 | 0.00 | 89 | 1024.4 |
| 20260903055510 | 60 | 274 | 0.0 | 0.0 | 0.00 | 0.00 | 0.00 | 89 | 1024.4 |
| 20260903055006 | 60 | 274 | 0.0 | 0.0 | 0.00 | 0.00 | 0.00 | 89 | 1024.2 |
| 20260903054155 | 60 | 274 | 0.0 | 0.0 | 0.00 | 0.00 | 0.00 | 89 | 1024.1 |
| 20260903053657 | 60 | 274 | 0.0 | 0.0 | 0.00 | 0.00 | 0.00 | 88 | 1024.1 |
| 20260903053156 | 60 | 274 | 0.0 | 0.0 | 0.00 | 0.00 | 0.00 | 88 | 1024.0 |
| 20260903052658 | 60 | 274 | 0.0 | 0.0 | 0.00 | 0.00 | 0.00 | 88 | 1024.0 |
| 20260903052155 | 61 | 274 | 0.0 | 1.0 | 0.00 | 0.00 | 0.00 | 88 | 1023.9 |
| 20260903051658 | 61 | 274 | 0.0 | 1.0 | 0.00 | 0.00 | 0.00 | 88 | 1023.8 |
| 20260903051155 | 61 | 274 | 0.0 | 3.0 | 0.00 | 0.00 | 0.00 | 88 | 1023.8 |
| 20260903050707 | 60 | 275 | 0.0 | 3.0 | 0.00 | 0.00 | 0.00 | 89 | 1023.8 |
| 20260903050156 | 60 | 289 | 0.0 | 1.0 | 0.00 | 0.00 | 0.00 | 89 | 1023.7 |
| 20260903045655 | 60 | 289 | 0.0 | 1.0 | 0.00 | 0.00 | 0.00 | 90 | 1023.7 |
| 20260903045156 | 60 | 289 | 0.0 | 0.0 | 0.00 | 0.00 | 0.00 | 89 | 1023.7 |
| 20260903044657 | 60 | 289 | 0.0 | 0.0 | 0.00 | 0.00 | 0.00 | 88 | 1023.7 |
| 20260903044158 | 60 | 289 | 0.0 | 0.0 | 0.00 | 0.00 | 0.00 | 88 | 1023.7 |
| 20260903044002 | 60 | 289 | 0.0 | 0.0 | 0.00 | 0.00 | 0.00 | 88 | 1023.7 |
| 20260903043156 | 60 | 289 | 0.0 | 0.0 | 0.00 | 0.00 | 0.00 | 88 | 1023.7 |
| 20260903043005 | 60 | 289 | 0.0 | 0.0 | 0.00 | 0.00 | 0.00 | 87 | 1023.6 |
| 20260903042503 | 60 | 289 | 0.0 | 0.0 | 0.00 | 0.00 | 0.00 | 87 | 1023.6 |
| 20260903041654 | 60 | 289 | 0.0 | 0.0 | 0.00 | 0.00 | 0.00 | 87 | 1023.6 |
| 20260903041503 | 61 | 289 | 0.0 | 0.0 | 0.00 | 0.00 | 0.00 | 86 | 1023.6 |
| 20260903040708 | 61 | 289 | 0.0 | 0.0 | 0.00 | 0.00 | 0.00 | 86 | 1023.5 |
| 20260903040155 | 61 | 289 | 0.0 | 0.0 | 0.00 | 0.00 | 0.00 | 86 | 1023.6 |
| 20260903035654 | 61 | 289 | 0.0 | 0.0 | 0.00 | 0.00 | 0.00 | 86 | 1023.6 |
| 20260903035153 | 62 | 289 | 0.0 | 0.0 | 0.00 | 0.00 | 0.00 | 85 | 1023.5 |
| 20260903034657 | 62 | 289 | 0.0 | 0.0 | 0.00 | 0.00 | 0.00 | 85 | 1023.6 |
| 20260903034152 | 62 | 289 | 0.0 | 0.0 | 0.00 | 0.00 | 0.00 | 85 | 1023.7 |
| 20260903033936 | 62 | 289 | 0.0 | 0.0 | 0.00 | 0.00 | 0.00 | 84 | 1023.6 |
| 20260903033156 | 62 | 289 | 0.0 | 0.0 | 0.00 | 0.00 | 0.00 | 84 | 1023.6 |
| 20260903032653 | 62 | 289 | 0.0 | 0.0 | 0.00 | 0.00 | 0.00 | 83 | 1023.6 |
| 20260903032155 | 63 | 289 | 0.0 | 0.0 | 0.00 | 0.00 | 0.00 | 82 | 1023.6 |
| 20260903031652 | 63 | 289 | 0.0 | 0.0 | 0.00 | 0.00 | 0.00 | 82 | 1023.7 |
| 20260903031154 | 63 | 289 | 0.0 | 0.0 | 0.00 | 0.00 | 0.00 | 82 | 1023.6 |
| 20260903030655 | 64 | 289 | 0.0 | 0.0 | 0.00 | 0.00 | 0.00 | 81 | 1023.6 |
| 20260903030152 | 64 | 289 | 0.0 | 0.0 | 0.00 | 0.00 | 0.00 | 81 | 1023.7 |
| 20260903025651 | 64 | 289 | 0.0 | 0.0 | 0.00 | 0.00 | 0.00 | 79 | 1023.7 |
| 20260903025151 | 65 | 289 | 0.0 | 0.0 | 0.00 | 0.00 | 0.00 | 79 | 1023.7 |
| 20260903024748 | 65 | 289 | 0.0 | 0.0 | 0.00 | 0.00 | 0.00 | 78 | 1023.8 |
| 20260903023652 | 66 | 286 | 0.0 | 1.0 | 0.00 | 0.00 | 0.00 | 77 | 1023.7 |
| 20260903023151 | 66 | 275 | 0.0 | 6.0 | 0.00 | 0.00 | 0.00 | 77 | 1023.7 |
| 20260903022651 | 67 | 279 | 1.0 | 6.0 | 0.00 | 0.00 | 0.00 | 76 | 1023.7 |
| 20260903022151 | 67 | 310 | 2.0 | 5.0 | 0.00 | 0.00 | 0.00 | 76 | 1023.7 |
| 20260903021650 | 67 | 309 | 1.0 | 4.0 | 0.00 | 0.00 | 0.00 | 76 | 1023.7 |
| 20260903021152 | 67 | 285 | 2.0 | 4.0 | 0.00 | 0.00 | 0.00 | 76 | 1023.6 |
| 20260903020650 | 67 | 285 | 2.0 | 3.0 | 0.00 | 0.00 | 0.00 | 75 | 1023.7 |
| 20260903020518 | 67 | 303 | 1.0 | 3.0 | 0.00 | 0.00 | 0.00 | 74 | 1023.6 |
| 20260903020001 | 67 | 296 | 1.0 | 3.0 | 0.00 | 0.00 | 0.00 | 73 | 1023.6 |
| 20260903015151 | 67 | 319 | 1.0 | 2.0 | 0.00 | 0.00 | 0.00 | 72 | 1023.5 |
| 20260903014652 | 67 | 305 | 0.0 | 3.0 | 0.00 | 0.00 | 0.00 | 72 | 1023.5 |
| 20260903014155 | 67 | 299 | 1.0 | 3.0 | 0.00 | 0.00 | 0.00 | 72 | 1023.6 |
| 20260903013650 | 67 | 279 | 0.0 | 2.0 | 0.00 | 0.00 | 0.00 | 73 | 1023.6 |
| 20260903013150 | 67 | 289 | 1.0 | 2.0 | 0.00 | 0.00 | 0.00 | 73 | 1023.6 |
| 20260903012648 | 66 | 300 | 1.0 | 2.0 | 0.00 | 0.00 | 0.00 | 73 | 1023.7 |
| 20260903012149 | 66 | 295 | 1.0 | 1.0 | 0.00 | 0.00 | 0.00 | 74 | 1023.6 |
| 20260903011654 | 65 | 285 | 0.0 | 1.0 | 0.00 | 0.00 | 0.00 | 75 | 1023.5 |
| 20260903011150 | 65 | 285 | 0.0 | 1.0 | 0.00 | 0.00 | 0.00 | 77 | 1023.6 |
| 20260903010651 | 65 | 283 | 0.0 | 1.0 | 0.00 | 0.00 | 0.00 | 77 | 1023.6 |
| 20260903010149 | 65 | 285 | 0.0 | 1.0 | 0.00 | 0.00 | 0.00 | 77 | 1023.6 |
| 20260903005650 | 65 | 285 | 0.0 | 0.0 | 0.00 | 0.00 | 0.00 | 77 | 1023.6 |
| 20260903005150 | 65 | 283 | 0.0 | 0.0 | 0.00 | 0.00 | 0.00 | 77 | 1023.7 |
| 20260903004649 | 65 | 285 | 0.0 | 1.0 | 0.00 | 0.00 | 0.00 | 77 | 1023.7 |
| 20260903004149 | 65 | 285 | 0.0 | 1.0 | 0.00 | 0.00 | 0.00 | 76 | 1023.6 |
| 20260903003649 | 65 | 285 | 0.0 | 1.0 | 0.00 | 0.00 | 0.00 | 75 | 1023.7 |
| 20260903003150 | 66 | 285 | 0.0 | 1.0 | 0.00 | 0.00 | 0.00 | 75 | 1023.5 |
| 20260903002648 | 66 | 285 | 1.0 | 1.0 | 0.00 | 0.00 | 0.00 | 75 | 1023.6 |
| 20260903002152 | 65 | 283 | 0.0 | 0.0 | 0.00 | 0.00 | 0.00 | 76 | 1023.6 |
| 20260903001648 | 65 | 283 | 0.0 | 0.0 | 0.00 | 0.00 | 0.00 | 75 | 1023.7 |
| 20260903001148 | 65 | 283 | 0.0 | 0.0 | 0.00 | 0.00 | 0.00 | 75 | 1023.7 |
| 20260903000649 | 65 | 282 | 0.0 | 1.0 | 0.00 | 0.00 | 0.00 | 75 | 1023.6 |
| 20260903000146 | 65 | 283 | 0.0 | 1.0 | 0.00 | 0.00 | 0.00 | 77 | 1023.7 |
| 20260902235649 | 65 | 283 | 0.0 | 1.0 | 0.00 | 0.00 | 0.00 | 77 | 1023.7 |
| 20260902235150 | 65 | 283 | 1.0 | 1.0 | 0.00 | 0.00 | 0.00 | 76 | 1023.6 |
| 20260902234648 | 66 | 283 | 1.0 | 1.0 | 0.00 | 0.00 | 0.00 | 74 | 1023.6 |
| 20260902234147 | 66 | 283 | 1.0 | 1.0 | 0.00 | 0.00 | 0.00 | 74 | 1023.6 |
| 20260902233648 | 67 | 283 | 0.0 | 1.0 | 0.00 | 0.00 | 0.00 | 73 | 1023.5 |
| 20260902233502 | 67 | 283 | 0.0 | 1.0 | 0.00 | 0.00 | 0.00 | 73 | 1023.6 |
| 20260902232648 | 67 | 283 | 0.0 | 1.0 | 0.00 | 0.00 | 0.00 | 72 | 1023.5 |
| 20260902232147 | 67 | 283 | 0.0 | 1.0 | 0.00 | 0.00 | 0.00 | 73 | 1023.5 |
| 20260902231649 | 67 | 283 | 1.0 | 2.0 | 0.00 | 0.00 | 0.00 | 73 | 1023.4 |
| 20260902231148 | 67 | 283 | 1.0 | 2.0 | 0.00 | 0.00 | 0.00 | 73 | 1023.5 |
| 20260902230747 | 67 | 282 | 1.0 | 2.0 | 0.00 | 0.00 | 0.00 | 72 | 1023.5 |
| 20260902225648 | 68 | 285 | 2.0 | 2.0 | 0.00 | 0.00 | 0.00 | 71 | 1023.4 |
| 20260902225147 | 68 | 285 | 2.0 | 2.0 | 0.00 | 0.00 | 0.00 | 70 | 1023.4 |
| 20260902224647 | 68 | 285 | 2.0 | 2.0 | 0.00 | 0.00 | 0.00 | 70 | 1023.3 |
| 20260902224147 | 68 | 285 | 2.0 | 2.0 | 0.00 | 0.00 | 0.00 | 70 | 1023.3 |
| 20260902223649 | 68 | 285 | 2.0 | 2.0 | 0.00 | 0.00 | 0.00 | 70 | 1023.3 |
| 20260902223157 | 68 | 285 | 2.0 | 2.0 | 0.00 | 0.00 | 0.00 | 69 | 1023.3 |
| 20260902222646 | 69 | 285 | 2.0 | 2.0 | 0.00 | 0.00 | 0.00 | 69 | 1023.4 |
| 20260902222145 | 69 | 285 | 2.0 | 2.0 | 0.00 | 0.00 | 0.00 | 68 | 1023.3 |
| 20260902221648 | 69 | 285 | 2.0 | 2.0 | 0.00 | 0.00 | 0.00 | 67 | 1023.4 |
| 20260902221145 | 70 | 285 | 2.0 | 2.0 | 0.00 | 0.00 | 0.00 | 67 | 1023.4 |
| 20260902220646 | 70 | 286 | 2.0 | 2.0 | 0.00 | 0.00 | 0.00 | 66 | 1023.4 |
| 20260902220146 | 71 | 285 | 2.0 | 2.0 | 0.00 | 0.00 | 0.00 | 64 | 1023.3 |
| 20260902215644 | 71 | 285 | 2.0 | 2.0 | 0.00 | 0.00 | 0.00 | 63 | 1023.3 |
| 20260902215145 | 72 | 286 | 2.0 | 2.0 | 0.00 | 0.00 | 0.00 | 63 | 1023.2 |
| 20260902214645 | 72 | 285 | 2.0 | 2.0 | 0.00 | 0.00 | 0.00 | 62 | 1023.2 |
| 20260902214146 | 72 | 286 | 2.0 | 2.0 | 0.00 | 0.00 | 0.00 | 62 | 1023.2 |
| 20260902213955 | 72 | 290 | 2.0 | 2.0 | 0.00 | 0.00 | 0.00 | 62 | 1023.2 |
| 20260902213145 | 72 | 292 | 2.0 | 2.0 | 0.00 | 0.00 | 0.00 | 62 | 1023.2 |
| 20260902212645 | 72 | 290 | 2.0 | 2.0 | 0.00 | 0.00 | 0.00 | 62 | 1023.2 |
| 20260902212144 | 72 | 290 | 2.0 | 2.0 | 0.00 | 0.00 | 0.00 | 61 | 1023.2 |
| 20260902211644 | 73 | 290 | 2.0 | 2.0 | 0.00 | 0.00 | 0.00 | 61 | 1023.1 |
| 20260902211157 | 73 | 290 | 2.0 | 2.0 | 0.00 | 0.00 | 0.00 | 61 | 1023.1 |
| 20260902210645 | 73 | 290 | 2.0 | 2.0 | 0.00 | 0.00 | 0.00 | 62 | 1023.1 |
| 20260902210143 | 73 | 292 | 2.0 | 2.0 | 0.00 | 0.00 | 0.00 | 61 | 1023.1 |
| 20260902205645 | 73 | 293 | 2.0 | 2.0 | 0.00 | 0.00 | 0.00 | 60 | 1023.0 |
| 20260902205452 | 74 | 298 | 2.0 | 2.0 | 0.00 | 0.00 | 0.00 | 60 | 1022.9 |
| 20260902204645 | 74 | 298 | 1.0 | 2.0 | 0.00 | 0.00 | 0.00 | 59 | 1023.0 |
| 20260902204142 | 74 | 296 | 1.0 | 2.0 | 0.00 | 0.00 | 0.00 | 59 | 1023.0 |
| 20260902203643 | 75 | 296 | 2.0 | 2.0 | 0.00 | 0.00 | 0.00 | 58 | 1023.0 |
| 20260902203454 | 75 | 293 | 2.0 | 3.0 | 0.00 | 0.00 | 0.00 | 58 | 1022.9 |
| 20260902202643 | 75 | 290 | 2.0 | 3.0 | 0.00 | 0.00 | 0.00 | 58 | 1022.8 |
| 20260902202144 | 75 | 293 | 2.0 | 3.0 | 0.00 | 0.00 | 0.00 | 57 | 1022.9 |
| 20260902201655 | 76 | 289 | 2.0 | 3.0 | 0.00 | 0.00 | 0.00 | 57 | 1022.8 |
| 20260902201156 | 76 | 286 | 2.0 | 2.0 | 0.00 | 0.00 | 0.00 | 56 | 1022.7 |
| 20260902200643 | 76 | 292 | 2.0 | 2.0 | 0.00 | 0.00 | 0.00 | 56 | 1022.6 |
| 20260902200144 | 76 | 283 | 1.0 | 1.0 | 0.00 | 0.00 | 0.00 | 56 | 1022.6 |
| 20260902195642 | 76 | 281 | 1.0 | 1.0 | 0.00 | 0.00 | 0.00 | 56 | 1022.5 |
| 20260902195310 | 76 | 283 | 1.0 | 2.0 | 0.00 | 0.00 | 0.00 | 56 | 1022.5 |
| 20260902195239 | 76 | 279 | 0.0 | 2.0 | 0.00 | 0.00 | 0.00 | 56 | 1022.5 |
| 20260902194142 | 76 | 282 | 0.0 | 1.0 | 0.00 | 0.00 | 0.00 | 55 | 1022.4 |
| 20260902193645 | 77 | 281 | 0.0 | 2.0 | 0.00 | 0.00 | 0.00 | 55 | 1022.4 |
| 20260902193142 | 77 | 282 | 0.0 | 2.0 | 0.00 | 0.00 | 0.00 | 54 | 1022.3 |
| 20260902192954 | 77 | 281 | 0.0 | 2.0 | 0.00 | 0.00 | 0.00 | 53 | 1022.2 |
| 20260902192141 | 78 | 286 | 1.0 | 2.0 | 0.00 | 0.00 | 0.00 | 53 | 1022.1 |
| 20260902191641 | 78 | 289 | 1.0 | 2.0 | 0.00 | 0.00 | 0.00 | 52 | 1022.0 |
| 20260902191141 | 78 | 289 | 1.0 | 2.0 | 0.00 | 0.00 | 0.00 | 52 | 1022.0 |
| 20260902190643 | 78 | 288 | 1.0 | 2.0 | 0.00 | 0.00 | 0.00 | 51 | 1022.0 |
| 20260902190142 | 78 | 288 | 1.0 | 2.0 | 0.00 | 0.00 | 0.00 | 51 | 1021.9 |
| 20260902185643 | 78 | 290 | 1.0 | 2.0 | 0.00 | 0.00 | 0.00 | 51 | 1021.9 |
| 20260902185142 | 78 | 290 | 2.0 | 2.0 | 0.00 | 0.00 | 0.00 | 52 | 1021.8 |
| 20260902184641 | 79 | 290 | 1.0 | 1.0 | 0.00 | 0.00 | 0.00 | 51 | 1021.8 |
| 20260902184144 | 80 | 286 | 1.0 | 1.0 | 0.00 | 0.00 | 0.00 | 49 | 1021.7 |
| 20260902183640 | 80 | 286 | 1.0 | 1.0 | 0.00 | 0.00 | 0.00 | 48 | 1021.6 |
| 20260902183141 | 80 | 286 | 1.0 | 1.0 | 0.00 | 0.00 | 0.00 | 48 | 1021.5 |
| 20260902182640 | 80 | 286 | 0.0 | 1.0 | 0.00 | 0.00 | 0.00 | 48 | 1021.4 |
| 20260902182141 | 80 | 290 | 0.0 | 1.0 | 0.00 | 0.00 | 0.00 | 48 | 1021.4 |
| 20260902181641 | 80 | 290 | 0.0 | 1.0 | 0.00 | 0.00 | 0.00 | 48 | 1021.5 |
| 20260902181140 | 81 | 290 | 0.0 | 1.0 | 0.00 | 0.00 | 0.00 | 48 | 1021.4 |
| 20260902180953 | 81 | 290 | 0.0 | 1.0 | 0.00 | 0.00 | 0.00 | 47 | 1021.4 |
| 20260902180140 | 82 | 290 | 0.0 | 1.0 | 0.00 | 0.00 | 0.00 | 47 | 1021.4 |
| 20260902175815 | 82 | 285 | 0.0 | 1.0 | 0.00 | 0.00 | 0.00 | 47 | 1021.4 |
| 20260902175739 | 82 | 290 | 0.0 | 1.0 | 0.00 | 0.00 | 0.00 | 47 | 1021.4 |
| 20260902174639 | 82 | 285 | 0.0 | 2.0 | 0.00 | 0.00 | 0.00 | 46 | 1021.3 |
| 20260902174452 | 82 | 285 | 0.0 | 2.0 | 0.00 | 0.00 | 0.00 | 46 | 1021.3 |
| 20260902174126 | 83 | 299 | 0.0 | 1.0 | 0.00 | 0.00 | 0.00 | 45 | 1021.3 |
| 20260902174119 | 83 | 279 | 0.0 | 2.0 | 0.00 | 0.00 | 0.00 | 46 | 1021.4 |
| 20260902172640 | 83 | 300 | 0.0 | 3.0 | 0.00 | 0.00 | 0.00 | 45 | 1021.3 |
| 20260902172140 | 83 | 293 | 1.0 | 3.0 | 0.00 | 0.00 | 0.00 | 45 | 1021.3 |
| 20260902171638 | 83 | 278 | 0.0 | 3.0 | 0.00 | 0.00 | 0.00 | 45 | 1021.3 |
| 20260902171452 | 83 | 278 | 0.0 | 3.0 | 0.00 | 0.00 | 0.00 | 45 | 1021.2 |
| 20260902170946 | 84 | 295 | 0.0 | 3.0 | 0.00 | 0.00 | 0.00 | 45 | 1021.2 |
| 20260902170139 | 84 | 295 | 0.0 | 6.0 | 0.00 | 0.00 | 0.00 | 45 | 1021.2 |
| 20260902165639 | 84 | 309 | 1.0 | 6.0 | 0.00 | 0.00 | 0.00 | 45 | 1021.2 |
| 20260902165447 | 84 | 278 | 0.0 | 3.0 | 0.00 | 0.00 | 0.00 | 45 | 1021.1 |
| 20260902164639 | 84 | 309 | 0.0 | 3.0 | 0.00 | 0.00 | 0.00 | 44 | 1021.1 |
| 20260902164137 | 84 | 282 | 0.0 | 4.0 | 0.00 | 0.00 | 0.00 | 44 | 1021.1 |
| 20260902163819 | 85 | 309 | 1.0 | 4.0 | 0.00 | 0.00 | 0.00 | 43 | 1021.0 |
| 20260902163742 | 84 | 310 | 1.0 | 4.0 | 0.00 | 0.00 | 0.00 | 43 | 1021.1 |
| 20260902162638 | 85 | 292 | 0.0 | 3.0 | 0.00 | 0.00 | 0.00 | 44 | 1021.0 |
| 20260902162138 | 85 | 282 | 1.0 | 5.0 | 0.00 | 0.00 | 0.00 | 43 | 1021.0 |
| 20260902161635 | 85 | 265 | 1.0 | 5.0 | 0.00 | 0.00 | 0.00 | 44 | 1021.0 |
| 20260902161453 | 85 | 279 | 1.0 | 3.0 | 0.00 | 0.00 | 0.00 | 44 | 1021.1 |
| 20260902160638 | 84 | 279 | 0.0 | 3.0 | 0.00 | 0.00 | 0.00 | 45 | 1021.1 |
| 20260902160138 | 85 | 282 | 0.0 | 1.0 | 0.00 | 0.00 | 0.00 | 44 | 1021.1 |
| 20260902155636 | 85 | 285 | 0.0 | 3.0 | 0.00 | 0.00 | 0.00 | 44 | 1021.1 |
| 20260902155446 | 85 | 313 | 0.0 | 3.0 | 0.00 | 0.00 | 0.00 | 44 | 1021.1 |
| 20260902154635 | 85 | 286 | 1.0 | 3.0 | 0.00 | 0.00 | 0.00 | 43 | 1021.2 |
| 20260902154136 | 85 | 295 | 0.0 | 5.0 | 0.00 | 0.00 | 0.00 | 43 | 1021.1 |
| 20260902153638 | 85 | 302 | 2.0 | 5.0 | 0.00 | 0.00 | 0.00 | 43 | 1021.2 |
| 20260902153136 | 85 | 281 | 2.0 | 4.0 | 0.00 | 0.00 | 0.00 | 43 | 1021.3 |
| 20260902152637 | 86 | 286 | 0.0 | 2.0 | 0.00 | 0.00 | 0.00 | 43 | 1021.1 |
| 20260902152135 | 86 | 271 | 0.0 | 2.0 | 0.00 | 0.00 | 0.00 | 43 | 1021.1 |
| 20260902151638 | 86 | 278 | 1.0 | 4.0 | 0.00 | 0.00 | 0.00 | 43 | 1021.1 |
| 20260902151138 | 86 | 307 | 0.0 | 5.0 | 0.00 | 0.00 | 0.00 | 43 | 1021.1 |
| 20260902150637 | 86 | 313 | 0.0 | 5.0 | 0.00 | 0.00 | 0.00 | 42 | 1021.1 |
| 20260902150135 | 86 | 326 | 1.0 | 5.0 | 0.00 | 0.00 | 0.00 | 42 | 1021.1 |
| 20260902145637 | 86 | 307 | 1.0 | 5.0 | 0.00 | 0.00 | 0.00 | 42 | 1021.1 |
| 20260902145443 | 86 | 290 | 2.0 | 5.0 | 0.00 | 0.00 | 0.00 | 42 | 1021.1 |
| 20260902144634 | 87 | 283 | 3.0 | 5.0 | 0.00 | 0.00 | 0.00 | 41 | 1021.2 |
| 20260902144136 | 87 | 6 | 1.0 | 4.0 | 0.00 | 0.00 | 0.00 | 43 | 1021.2 |
| 20260902143635 | 86 | 272 | 0.0 | 7.0 | 0.00 | 0.00 | 0.00 | 43 | 1021.2 |
| 20260902143442 | 86 | 309 | 2.0 | 7.0 | 0.00 | 0.00 | 0.00 | 42 | 1021.2 |
| 20260902142635 | 87 | 275 | 1.0 | 3.0 | 0.00 | 0.00 | 0.00 | 43 | 1021.2 |
| 20260902142135 | 87 | 21 | 1.0 | 4.0 | 0.00 | 0.00 | 0.00 | 43 | 1021.2 |
| 20260902141940 | 87 | 305 | 2.0 | 4.0 | 0.00 | 0.00 | 0.00 | 42 | 1021.3 |
| 20260902141148 | 87 | 326 | 0.0 | 3.0 | 0.00 | 0.00 | 0.00 | 44 | 1021.3 |
| 20260902140633 | 87 | 10 | 0.0 | 5.0 | 0.00 | 0.00 | 0.00 | 44 | 1021.3 |
| 20260902140133 | 86 | 8 | 0.0 | 5.0 | 0.00 | 0.00 | 0.00 | 44 | 1021.4 |
| 20260902135636 | 87 | 305 | 2.0 | 5.0 | 0.00 | 0.00 | 0.00 | 43 | 1021.4 |
| 20260902135135 | 87 | 310 | 1.0 | 6.0 | 0.00 | 0.00 | 0.00 | 45 | 1021.4 |
| 20260902134635 | 87 | 283 | 0.0 | 6.0 | 0.00 | 0.00 | 0.00 | 44 | 1021.4 |
| 20260902134136 | 87 | 338 | 0.0 | 3.0 | 0.00 | 0.00 | 0.00 | 45 | 1021.4 |
| 20260902133635 | 87 | 316 | 1.0 | 3.0 | 0.00 | 0.00 | 0.00 | 45 | 1021.4 |
| 20260902133134 | 88 | 312 | 2.0 | 3.0 | 0.00 | 0.00 | 0.00 | 42 | 1021.5 |
| 20260902132632 | 87 | 76 | 0.0 | 1.0 | 0.00 | 0.00 | 0.00 | 44 | 1021.6 |
| 20260902132132 | 87 | 23 | 0.0 | 5.0 | 0.00 | 0.00 | 0.00 | 44 | 1021.5 |
| 20260902131632 | 87 | 299 | 2.0 | 5.0 | 0.00 | 0.00 | 0.00 | 43 | 1021.5 |
| 20260902131134 | 87 | 258 | 0.0 | 4.0 | 0.00 | 0.00 | 0.00 | 45 | 1021.5 |
| 20260902130806 | 86 | 281 | 0.0 | 5.0 | 0.00 | 0.00 | 0.00 | 47 | 1021.5 |
| 20260902130733 | 86 | 228 | 0.0 | 4.0 | 0.00 | 0.00 | 0.00 | 45 | 1021.6 |
| 20260902125633 | 85 | 35 | 2.0 | 5.0 | 0.00 | 0.00 | 0.00 | 46 | 1021.6 |
| 20260902125132 | 85 | 295 | 1.0 | 6.0 | 0.00 | 0.00 | 0.00 | 46 | 1021.6 |
| 20260902124728 | 85 | 288 | 1.0 | 6.0 | 0.00 | 0.00 | 0.00 | 46 | 1021.6 |
| 20260902123633 | 86 | 299 | 0.0 | 4.0 | 0.00 | 0.00 | 0.00 | 47 | 1021.7 |
| 20260902123132 | 85 | 149 | 0.0 | 2.0 | 0.00 | 0.00 | 0.00 | 47 | 1021.7 |
| 20260902122726 | 85 | 66 | 0.0 | 4.0 | 0.00 | 0.00 | 0.00 | 48 | 1021.8 |
| 20260902121633 | 86 | 289 | 1.0 | 3.0 | 0.00 | 0.00 | 0.00 | 47 | 1021.9 |
| 20260902121131 | 85 | 338 | 1.0 | 3.0 | 0.00 | 0.00 | 0.00 | 47 | 1021.9 |
| 20260902120632 | 86 | 103 | 2.0 | 3.0 | 0.00 | 0.00 | 0.00 | 47 | 1022.0 |
| 20260902120131 | 85 | 123 | 0.0 | 4.0 | 0.00 | 0.00 | 0.00 | 48 | 1022.0 |
| 20260902115630 | 84 | 103 | 0.0 | 6.0 | 0.00 | 0.00 | 0.00 | 50 | 1022.0 |
| 20260902115133 | 84 | 106 | 2.0 | 6.0 | 0.00 | 0.00 | 0.00 | 49 | 1022.1 |
| 20260902114630 | 83 | 56 | 0.0 | 4.0 | 0.00 | 0.00 | 0.00 | 50 | 1022.1 |
| 20260902114133 | 83 | 275 | 1.0 | 6.0 | 0.00 | 0.00 | 0.00 | 48 | 1022.1 |
| 20260902113632 | 83 | 109 | 3.0 | 6.0 | 0.00 | 0.00 | 0.00 | 49 | 1022.2 |
| 20260902113146 | 83 | 82 | 0.0 | 2.0 | 0.00 | 0.00 | 0.00 | 49 | 1022.2 |
| 20260902112630 | 83 | 113 | 1.0 | 4.0 | 0.00 | 0.00 | 0.00 | 49 | 1022.3 |
| 20260902112130 | 83 | 110 | 1.0 | 4.0 | 0.00 | 0.00 | 0.00 | 50 | 1022.4 |
| 20260902111629 | 83 | 87 | 2.0 | 4.0 | 0.00 | 0.00 | 0.00 | 50 | 1022.4 |
| 20260902111128 | 83 | 80 | 3.0 | 4.0 | 0.00 | 0.00 | 0.00 | 49 | 1022.4 |
| 20260902110631 | 84 | 65 | 0.0 | 5.0 | 0.00 | 0.00 | 0.00 | 50 | 1022.5 |
| 20260902110446 | 83 | 97 | 1.0 | 5.0 | 0.00 | 0.00 | 0.00 | 51 | 1022.5 |
| 20260902105632 | 83 | 103 | 1.0 | 5.0 | 0.00 | 0.00 | 0.00 | 51 | 1022.6 |
| 20260902105130 | 82 | 89 | 1.0 | 2.0 | 0.00 | 0.00 | 0.00 | 52 | 1022.6 |
| 20260902104630 | 81 | 272 | 0.0 | 3.0 | 0.00 | 0.00 | 0.00 | 52 | 1022.7 |
| 20260902104130 | 82 | 264 | 1.0 | 3.0 | 0.00 | 0.00 | 0.00 | 51 | 1022.8 |
| 20260902103939 | 82 | 316 | 1.0 | 3.0 | 0.00 | 0.00 | 0.00 | 52 | 1022.8 |
| 20260902103130 | 82 | 109 | 0.0 | 5.0 | 0.00 | 0.00 | 0.00 | 53 | 1022.8 |
| 20260902102630 | 81 | 90 | 2.0 | 5.0 | 0.00 | 0.00 | 0.00 | 53 | 1022.9 |
| 20260902102132 | 82 | 69 | 0.0 | 5.0 | 0.00 | 0.00 | 0.00 | 53 | 1022.9 |
| 20260902101628 | 82 | 109 | 3.0 | 5.0 | 0.00 | 0.00 | 0.00 | 51 | 1022.9 |
| 20260902101131 | 82 | 56 | 0.0 | 3.0 | 0.00 | 0.00 | 0.00 | 55 | 1023.0 |
| 20260902100629 | 80 | 137 | 0.0 | 3.0 | 0.00 | 0.00 | 0.00 | 56 | 1022.8 |
| 20260902100442 | 79 | 293 | 1.0 | 3.0 | 0.00 | 0.00 | 0.00 | 57 | 1023.0 |
| 20260902095628 | 79 | 289 | 1.0 | 3.0 | 0.00 | 0.00 | 0.00 | 57 | 1022.9 |
| 20260902095129 | 78 | 227 | 1.0 | 3.0 | 0.00 | 0.00 | 0.00 | 57 | 1022.9 |
| 20260902094628 | 79 | 247 | 0.0 | 3.0 | 0.00 | 0.00 | 0.00 | 56 | 1022.9 |
| 20260902094258 | 78 | 83 | 0.0 | 3.0 | 0.00 | 0.00 | 0.00 | 59 | 1023.0 |
| 20260902094226 | 79 | 303 | 1.0 | 3.0 | 0.00 | 0.00 | 0.00 | 58 | 1022.9 |
| 20260902093446 | 77 | 261 | 0.0 | 3.0 | 0.00 | 0.00 | 0.00 | 60 | 1022.9 |
| 20260902092629 | 78 | 281 | 1.0 | 3.0 | 0.00 | 0.00 | 0.00 | 60 | 1023.0 |
| 20260902092127 | 78 | 276 | 1.0 | 3.0 | 0.00 | 0.00 | 0.00 | 59 | 1022.9 |
| 20260902091626 | 78 | 275 | 0.0 | 3.0 | 0.00 | 0.00 | 0.00 | 59 | 1022.9 |
| 20260902091126 | 78 | 264 | 1.0 | 3.0 | 0.00 | 0.00 | 0.00 | 60 | 1022.8 |
| 20260902090624 | 77 | 278 | 0.0 | 1.0 | 0.00 | 0.00 | 0.00 | 62 | 1022.7 |
| 20260902090440 | 76 | 197 | 0.0 | 2.0 | 0.00 | 0.00 | 0.00 | 62 | 1022.7 |
| 20260902085627 | 75 | 358 | 0.0 | 3.0 | 0.00 | 0.00 | 0.00 | 65 | 1022.7 |
| 20260902085128 | 75 | 151 | 0.0 | 3.0 | 0.00 | 0.00 | 0.00 | 65 | 1022.6 |
| 20260902084626 | 75 | 306 | 1.0 | 2.0 | 0.00 | 0.00 | 0.00 | 64 | 1022.6 |
| 20260902084126 | 75 | 276 | 0.0 | 2.0 | 0.00 | 0.00 | 0.00 | 65 | 1022.5 |
| 20260902083626 | 74 | 288 | 0.0 | 2.0 | 0.00 | 0.00 | 0.00 | 65 | 1022.6 |
| 20260902083127 | 73 | 283 | 0.0 | 2.0 | 0.00 | 0.00 | 0.00 | 68 | 1022.6 |
| 20260902082625 | 73 | 300 | 0.0 | 2.0 | 0.00 | 0.00 | 0.00 | 68 | 1022.6 |
| 20260902082137 | 73 | 290 | 0.0 | 2.0 | 0.00 | 0.00 | 0.00 | 66 | 1022.5 |
| 20260902081624 | 73 | 292 | 0.0 | 4.0 | 0.00 | 0.00 | 0.00 | 68 | 1022.4 |
| 20260902081126 | 73 | 292 | 1.0 | 4.0 | 0.00 | 0.00 | 0.00 | 68 | 1022.4 |
| 20260902080626 | 72 | 285 | 0.0 | 3.0 | 0.00 | 0.00 | 0.00 | 71 | 1022.4 |
| 20260902080125 | 71 | 289 | 0.0 | 2.0 | 0.00 | 0.00 | 0.00 | 71 | 1022.3 |
| 20260902075627 | 71 | 305 | 0.0 | 2.0 | 0.00 | 0.00 | 0.00 | 73 | 1022.3 |
| 20260902075439 | 70 | 298 | 0.0 | 2.0 | 0.00 | 0.00 | 0.00 | 74 | 1022.5 |